Location: Davidschlag
(48.4333°N, 14.2833°E)
Time: 20:37:43
(UTC+00:00)

STARLINK-1059 - Pass Details

Date: 27 February 2020
Orbit: 548 x 551 km, 53.0° (Epoch: 29 March)

Event Time Altitude Azimuth Distance (km) Brightness Sun altitude
Rises 19:08:11 0° 279° (W) 2,718 8.5 -24.7°
Reaches altitude 10° 19:10:30 10° 286° (WNW) 1,824 7.3 -25.1°
Enters shadow 19:14:05 42° 343° (NNW) 795 4.6 -25.6°
